Regional Weather Roundup
Issued by NWS

Home | Current Version | Previous Version | Text Only | Print | Product List | Glossary Off
Versions: 1 2 3 4 5 6 7 8 9 10 11 12 13 14 15 16 17 18 19 20 21 22 23 24 25 26 27 28 29 30 31 32 33 34 35 36 37 38 39 40 41 42 43 44 45 46 47 48 49 50

402
ASUS43 KFSD 251210
RWRSD

WEATHER ROUNDUP FOR SOUTH DAKOTA
NATIONAL WEATHER SERVICE SIOUX FALLS SD
700 AM CDT WED MAY 25 2016

NOTE: "FAIR" INDICATES FEW OR NO CLOUDS BELOW 12,000 FEET WITH NO
SIGNIFICANT WEATHER AND/OR OBSTRUCTIONS TO VISIBILITY.


SDZ001>005-009-010-012>017-251300-
NORTHWEST AND NORTH CENTRAL SOUTH DAKOTA

CITY           SKY/WX    TMP DP  RH WIND       PRES   REMARKS
BUFFALO          N/A     52  47  83 SW3       29.77S
FAITH            N/A     49  45  86 CALM      29.83R
MOBRIDGE       CLOUDY    60  52  74 E15       29.73F
$$

SDZ012>016-024>037-041>051-057-063-072>074-251300-
SOUTHWEST AND SOUTH CENTRAL SOUTH DAKOTA

CITY           SKY/WX    TMP DP  RH WIND       PRES   REMARKS
RAPID CTY ARPT CLOUDY    47  45  93 W5        29.86R
PIERRE         PTCLDY    55  54  96 SW8       29.75S
CUSTER         CLOUDY    43  42  97 SW5       29.91S
ELLSWORTH AFB  CLOUDY    47  47  99 W5        29.86R
PHILIP         CLOUDY    51  49  92 W7        29.81R
PINE RIDGE     CLOUDY    50  48  93 SW5       29.87R
WINNER         PTSUNNY   59  56  89 CALM      29.80R
$$

SDZ004>011-016>023-039-040-251300-
NORTHEAST SOUTH DAKOTA

CITY           SKY/WX    TMP DP  RH WIND       PRES   REMARKS
ABERDEEN       LGT RAIN  60  56  86 NE10      29.78R
WATERTOWN      RAIN      64  60  87 SE18G28   29.77F FOG
BROOKINGS      CLOUDY    60  58  92 E15G21    29.76F
SISSETON         N/A     60  55  83 CALM      29.79R
$$

SDZ017-020-022-023-036>040-048>070-251300-
SOUTHEAST SOUTH DAKOTA

CITY           SKY/WX    TMP DP  RH WIND       PRES   REMARKS
SIOUX FALLS    LGT RAIN  60  58  92 SE9       29.82R
HURON          RAIN      59  58  96 N12       29.73S FOG
CHAMBERLAIN    MOCLDY    59  59 100 SW6       29.78S
MITCHELL       CLOUDY    62  60  93 S13       29.76R
YANKTON        CLOUDY    61  57  88 SE3       29.82R
$$

ABBREVIATIONS USED IN REMARKS
   TC - TEMPERATURE IN CELSIUS
  WCI - WIND CHILL INDEX
   HX - HEAT INDEX
  VSB - VISIBILITY





USA.gov is the U.S. government's official web portal to all federal, state and local government web resources and services.